QPF
0.01 0.01 0.01 0.01 0.02 0.03 0.02 0.03 0.03 0.01 0.01 0.01 0.01 0.01 0.01 0.01 0.01 0.02 0.02 0.02 0.02 0.03 0.04 0.06 0.07 0.11 0.12 0.12 0.11 0.11 0.11 0.10 0.08 0.06 0.05 0.05 0.04 0.03 0.02 0.02 0.01 0.01 0.02
0.01 0.01 0.01 0.00 0.01 0.02 0.02 0.02 0.04 0.03 0.02 0.01 0.01 0.01 0.01 0.01 0.01 0.01 0.02 0.02 0.02 0.03 0.03 0.05 0.07 0.09 0.09 0.10 0.11 0.10 0.11 0.10 0.07 0.06 0.06 0.06 0.06 0.05 0.03 0.03 0.02 0.01 0.01
0.01 0.01 0.00 0.00 0.00 0.01 0.01 0.02 0.03 0.04 0.03 0.02 0.02 0.01 0.01 0.01 0.01 0.01 0.02 0.02 0.02 0.02 0.03 0.04 0.05 0.08 0.08 0.08 0.09 0.10 0.10 0.10 0.09 0.06 0.05 0.05 0.05 0.04 0.03 0.03 0.02 0.02 0.01
0.00 0.01 0.01 0.01 0.01 0.01 0.01 0.02 0.02 0.05 0.06 0.04 0.03 0.02 0.01 0.01 0.01 0.01 0.02 0.02 0.02 0.01 0.01 0.02 0.03 0.05 0.08 0.08 0.07 0.08 0.09 0.10 0.09 0.08 0.07 0.06 0.05 0.04 0.04 0.03 0.02 0.02 0.02
0.00 0.00 0.00 0.00 0.00 0.01 0.01 0.01 0.02 0.03 0.05 0.06 0.04 0.03 0.02 0.02 0.01 0.01 0.02 0.02 0.02 0.02 0.02 0.02 0.02 0.03 0.04 0.07 0.07 0.07 0.08 0.08 0.07 0.06 0.05 0.05 0.04 0.03 0.03 0.03 0.02 0.02 0.02
0.00 0.00 0.00 0.00 0.00 0.00 0.01 0.01 0.02 0.03 0.03 0.05 0.05 0.04 0.04 0.04 0.04 0.02 0.02 0.02 0.03 0.03 0.02 0.02 0.02 0.02 0.03 0.04 0.06 0.06 0.06 0.07 0.07 0.05 0.04 0.04 0.04 0.03 0.03 0.03 0.03 0.02 0.02
0.00 0.00 0.00 0.00 0.00 0.00 0.00 0.01 0.01 0.02 0.03 0.04 0.06 0.06 0.06 0.05 0.06 0.06 0.04 0.03 0.04 0.04 0.03 0.02 0.02 0.02 0.02 0.03 0.04 0.04 0.05 0.06 0.07 0.05 0.04 0.04 0.04 0.03 0.03 0.03 0.03 0.03 0.02
0.00 0.00 0.00 0.00 0.00 0.00 0.01 0.01 0.01 0.01 0.02 0.03 0.04 0.06 0.06 0.08 0.10 0.11 0.10 0.08 0.06 0.06 0.05 0.05 0.03 0.03 0.03 0.03 0.03 0.04 0.04 0.05 0.06 0.05 0.04 0.03 0.03 0.03 0.03 0.02 0.03 0.03 0.02
0.00 0.00 0.00 0.00 0.00 0.00 0.01 0.01 0.01 0.01 0.02 0.02 0.02 0.03 0.05 0.06 0.08 0.10 0.12 0.11 0.09 0.08 0.08 0.07 0.05 0.03 0.04 0.04 0.05 0.05 0.05 0.04 0.05 0.04 0.03 0.03 0.03 0.03 0.03 0.03 0.02 0.03 0.03
0.00 0.00 0.00 0.00 0.00 0.00 0.00 0.00 0.01 0.01 0.02 0.02 0.02 0.02 0.03 0.04 0.06 0.08 0.10 0.11 0.10 0.08 0.08 0.09 0.08 0.05 0.03 0.03 0.03 0.04 0.04 0.04 0.05 0.06 0.06 0.05 0.04 0.04 0.04 0.04 0.03 0.03 0.03
0.00 0.00 0.00 0.00 0.00 0.00 0.00 0.00 0.01 0.01 0.01 0.02 0.02 0.03 0.03 0.03 0.04 0.06 0.07 0.08 0.10 0.10 0.08 0.09 0.09 0.07 0.04 0.03 0.03 0.03 0.03 0.04 0.04 0.05 0.06 0.05 0.05 0.05 0.04 0.04 0.04 0.05 0.05
0.00 0.00 0.00 0.00 0.00 0.00 0.00 0.00 0.01 0.01 0.01 0.01 0.02 0.03 0.03 0.04 0.03 0.04 0.06 0.06 0.07 0.10 0.10 0.10 0.10 0.09 0.07 0.04 0.03 0.03 0.04 0.04 0.03 0.03 0.04 0.04 0.04 0.04 0.03 0.03 0.03 0.03 0.03
0.00 0.00 0.00 0.00 0.00 0.00 0.00 0.00 0.00 0.01 0.01 0.01 0.02 0.03 0.04 0.05 0.05 0.04 0.04 0.05 0.06 0.07 0.09 0.09 0.10 0.09 0.08 0.07 0.04 0.03 0.04 0.03 0.03 0.02 0.02 0.02 0.02 0.02 0.02 0.02 0.02 0.02 0.02
0.00 0.00 0.00 0.00 0.00 0.00 0.00 0.00 0.00 0.01 0.01 0.01 0.01 0.01 0.02 0.04 0.05 0.05 0.05 0.05 0.05 0.06 0.06 0.07 0.08 0.08 0.08 0.07 0.06 0.05 0.05 0.04 0.03 0.03 0.02 0.02 0.01 0.01 0.01 0.01 0.02 0.02 0.02
0.00 0.00 0.00 0.00 0.00 0.01 0.01 0.01 0.01 0.01 0.01 0.01 0.01 0.01 0.01 0.02 0.03 0.03 0.04 0.05 0.05 0.06 0.06 0.06 0.06 0.07 0.08 0.08 0.07 0.07 0.07 0.06 0.05 0.04 0.04 0.03 0.03 0.02 0.02 0.02 0.02 0.02 0.03
0.00 0.00 0.00 0.00 0.01 0.01 0.01 0.01 0.01 0.01 0.01 0.01 0.01 0.01 0.02 0.02 0.02 0.02 0.02 0.03 0.05 0.05 0.06 0.07 0.07 0.07 0.07 0.08 0.08 0.07 0.08 0.08 0.06 0.05 0.04 0.04 0.03 0.03 0.03 0.02 0.02 0.02 0.03
0.00 0.00 0.00 0.01 0.01 0.01 0.01 0.01 0.01 0.01 0.01 0.01 0.02 0.01 0.01 0.02 0.02 0.02 0.01 0.02 0.03 0.04 0.06 0.07 0.07 0.07 0.07 0.07 0.07 0.07 0.06 0.07 0.06 0.05 0.05 0.04 0.04 0.03 0.02 0.02 0.02 0.02 0.02
0.00 0.00 0.01 0.01 0.01 0.01 0.01 0.01 0.01 0.01 0.02 0.02 0.02 0.02 0.02 0.02 0.02 0.02 0.02 0.02 0.02 0.03 0.04 0.05 0.06 0.07 0.07 0.07 0.07 0.06 0.05 0.05 0.05 0.05 0.05 0.05 0.05 0.04 0.04 0.04 0.03 0.02 0.02
0.00 0.00 0.01 0.01 0.01 0.01 0.01 0.01 0.01 0.02 0.02 0.02 0.02 0.02 0.02 0.02 0.02 0.02 0.02 0.02 0.02 0.02 0.02 0.03 0.04 0.06 0.07 0.08 0.07 0.06 0.05 0.05 0.04 0.04 0.04 0.05 0.05 0.05 0.05 0.05 0.04 0.03 0.03
0.01 0.01 0.01 0.01 0.01 0.02 0.01 0.01 0.01 0.02 0.02 0.02 0.01 0.02 0.02 0.02 0.02 0.02 0.02 0.03 0.03 0.02 0.02 0.03 0.03 0.04 0.06 0.07 0.07 0.06 0.06 0.06 0.04 0.04 0.04 0.04 0.04 0.05 0.06 0.05 0.05 0.04 0.04
0.01 0.01 0.02 0.02 0.02 0.02 0.02 0.02 0.01 0.01 0.02 0.02 0.01 0.01 0.02 0.02 0.02 0.02 0.02 0.03 0.03 0.03 0.03 0.03 0.04 0.04 0.04 0.05 0.06 0.07 0.07 0.08 0.07 0.05 0.04 0.04 0.04 0.05 0.05 0.05 0.05 0.04 0.04
0.01 0.02 0.02 0.02 0.02 0.02 0.02 0.01 0.01 0.01 0.02 0.03 0.03 0.02 0.02 0.02 0.03 0.03 0.03 0.03 0.04 0.04 0.04 0.04 0.05 0.05 0.05 0.04 0.05 0.07 0.07 0.07 0.07 0.06 0.05 0.05 0.05 0.05 0.04 0.04 0.04 0.04 0.04
0.01 0.02 0.02 0.03 0.02 0.02 0.02 0.02 0.01 0.01 0.01 0.03 0.05 0.05 0.04 0.04 0.04 0.04 0.04 0.03 0.04 0.05 0.06 0.06 0.05 0.05 0.06 0.05 0.05 0.06 0.06 0.07 0.07 0.06 0.05 0.05 0.06 0.05 0.05 0.05 0.04 0.04 0.03
0.02 0.02 0.02 0.02 0.03 0.02 0.02 0.02 0.02 0.01 0.01 0.02 0.04 0.06 0.06 0.06 0.05 0.05 0.05 0.04 0.04 0.04 0.05 0.06 0.06 0.05 0.05 0.05 0.06 0.06 0.06 0.06 0.06 0.07 0.06 0.06 0.05 0.05 0.05 0.05 0.05 0.04 0.04
0.02 0.02 0.02 0.02 0.02 0.03 0.03 0.03 0.02 0.02 0.02 0.03 0.03 0.05 0.06 0.06 0.06 0.06 0.06 0.06 0.04 0.04 0.04 0.04 0.05 0.05 0.05 0.05 0.05 0.06 0.06 0.06 0.06 0.06 0.06 0.06 0.05 0.05 0.05 0.05 0.04 0.04 0.04
0.02 0.02 0.02 0.02 0.02 0.03 0.03 0.03 0.03 0.02 0.02 0.02 0.03 0.04 0.05 0.06 0.06 0.06 0.06 0.07 0.06 0.05 0.05 0.05 0.05 0.05 0.05 0.05 0.06 0.06 0.06 0.07 0.07 0.06 0.05 0.04 0.04 0.03 0.03 0.04 0.04 0.04 0.04
MSLP
1027.90 1028.66 1029.25 1029.66 1029.89 1029.98 1029.98 1029.93 1029.89 1029.91 1030.00 1030.19 1030.45 1030.74 1031.04 1031.30 1031.48 1031.57 1031.56 1031.48 1031.33 1031.16 1031.01 1030.88 1030.79 1030.73 1030.70 1030.67 1030.63 1030.57 1030.49 1030.40 1030.32 1030.27 1030.26 1030.29 1030.36 1030.46 1030.54 1030.59 1030.57 1030.45 1030.23
1028.43 1029.13 1029.66 1030.02 1030.22 1030.29 1030.27 1030.22 1030.17 1030.19 1030.30 1030.49 1030.76 1031.08 1031.40 1031.67 1031.87 1031.97 1031.96 1031.86 1031.70 1031.52 1031.34 1031.20 1031.10 1031.04 1031.01 1030.98 1030.95 1030.89 1030.81 1030.71 1030.62 1030.55 1030.52 1030.55 1030.62 1030.73 1030.84 1030.93 1030.95 1030.89 1030.73
1028.83 1029.44 1029.91 1030.23 1030.42 1030.49 1030.49 1030.45 1030.43 1030.46 1030.58 1030.78 1031.05 1031.37 1031.68 1031.96 1032.16 1032.25 1032.25 1032.14 1031.98 1031.78 1031.59 1031.43 1031.32 1031.25 1031.21 1031.19 1031.16 1031.10 1031.03 1030.95 1030.86 1030.81 1030.79 1030.83 1030.92 1031.05 1031.19 1031.31 1031.37 1031.34 1031.22
1029.12 1029.63 1030.03 1030.33 1030.51 1030.61 1030.65 1030.66 1030.67 1030.73 1030.85 1031.05 1031.30 1031.60 1031.90 1032.15 1032.34 1032.43 1032.42 1032.31 1032.15 1031.95 1031.75 1031.58 1031.45 1031.37 1031.32 1031.30 1031.27 1031.24 1031.19 1031.13 1031.09 1031.06 1031.09 1031.16 1031.28 1031.43 1031.59 1031.73 1031.82 1031.82 1031.72
1029.35 1029.76 1030.10 1030.37 1030.57 1030.71 1030.80 1030.86 1030.92 1031.00 1031.13 1031.31 1031.53 1031.78 1032.04 1032.26 1032.42 1032.50 1032.49 1032.39 1032.23 1032.03 1031.83 1031.66 1031.52 1031.42 1031.37 1031.34 1031.33 1031.32 1031.31 1031.29 1031.30 1031.33 1031.39 1031.51 1031.66 1031.84 1032.03 1032.18 1032.28 1032.30 1032.21
1029.60 1029.91 1030.19 1030.44 1030.66 1030.84 1030.98 1031.09 1031.19 1031.28 1031.40 1031.55 1031.73 1031.93 1032.13 1032.31 1032.44 1032.50 1032.49 1032.40 1032.25 1032.07 1031.88 1031.70 1031.55 1031.45 1031.39 1031.37 1031.37 1031.38 1031.41 1031.44 1031.50 1031.58 1031.70 1031.85 1032.04 1032.24 1032.44 1032.61 1032.71 1032.73 1032.66
1029.93 1030.15 1030.38 1030.61 1030.83 1031.03 1031.21 1031.35 1031.46 1031.56 1031.65 1031.76 1031.88 1032.02 1032.17 1032.30 1032.41 1032.46 1032.46 1032.38 1032.25 1032.09 1031.91 1031.73 1031.59 1031.48 1031.42 1031.39 1031.40 1031.44 1031.50 1031.58 1031.68 1031.80 1031.95 1032.14 1032.34 1032.56 1032.76 1032.93 1033.04 1033.08 1033.02
1030.39 1030.54 1030.71 1030.90 1031.11 1031.31 1031.49 1031.63 1031.74 1031.81 1031.86 1031.91 1031.97 1032.05 1032.14 1032.25 1032.33 1032.38 1032.39 1032.34 1032.24 1032.09 1031.93 1031.76 1031.62 1031.51 1031.44 1031.42 1031.43 1031.49 1031.57 1031.67 1031.80 1031.94 1032.11 1032.31 1032.51 1032.73 1032.93 1033.10 1033.22 1033.27 1033.24
1030.99 1031.08 1031.19 1031.33 1031.50 1031.66 1031.81 1031.91 1031.97 1031.99 1031.98 1031.97 1031.97 1032.00 1032.05 1032.12 1032.19 1032.25 1032.28 1032.26 1032.18 1032.06 1031.92 1031.76 1031.62 1031.50 1031.43 1031.40 1031.42 1031.48 1031.57 1031.68 1031.82 1031.97 1032.13 1032.31 1032.50 1032.70 1032.90 1033.07 1033.20 1033.28 1033.29
1031.72 1031.75 1031.80 1031.88 1031.97 1032.07 1032.14 1032.17 1032.16 1032.10 1032.02 1031.94 1031.87 1031.84 1031.86 1031.91 1031.98 1032.05 1032.09 1032.09 1032.05 1031.95 1031.82 1031.68 1031.54 1031.42 1031.34 1031.31 1031.32 1031.38 1031.47 1031.57 1031.70 1031.83 1031.98 1032.13 1032.30 1032.47 1032.65 1032.82 1032.97 1033.09 1033.16
1032.53 1032.51 1032.50 1032.50 1032.50 1032.50 1032.47 1032.39 1032.28 1032.13 1031.95 1031.79 1031.66 1031.58 1031.56 1031.59 1031.66 1031.73 1031.79 1031.81 1031.79 1031.71 1031.59 1031.45 1031.31 1031.19 1031.11 1031.07 1031.08 1031.13 1031.21 1031.31 1031.42 1031.53 1031.64 1031.76 1031.89 1032.04 1032.20 1032.38 1032.56 1032.72 1032.86
1033.35 1033.30 1033.23 1033.14 1033.04 1032.92 1032.77 1032.58 1032.35 1032.09 1031.83 1031.58 1031.39 1031.26 1031.19 1031.20 1031.25 1031.31 1031.37 1031.39 1031.37 1031.30 1031.18 1031.04 1030.90 1030.79 1030.71 1030.67 1030.68 1030.73 1030.81 1030.89 1030.98 1031.07 1031.15 1031.24 1031.34 1031.47 1031.62 1031.81 1032.01 1032.22 1032.42
1034.14 1034.06 1033.93 1033.76 1033.56 1033.33 1033.06 1032.75 1032.41 1032.04 1031.68 1031.36 1031.09 1030.90 1030.79 1030.75 1030.77 1030.81 1030.84 1030.85 1030.81 1030.73 1030.60 1030.46 1030.32 1030.21 1030.13 1030.10 1030.12 1030.18 1030.25 1030.33 1030.41 1030.48 1030.55 1030.62 1030.70 1030.82 1030.96 1031.15 1031.38 1031.62 1031.88
1034.84 1034.74 1034.57 1034.33 1034.05 1033.72 1033.35 1032.93 1032.49 1032.03 1031.58 1031.18 1030.84 1030.59 1030.41 1030.32 1030.28 1030.27 1030.25 1030.22 1030.15 1030.04 1029.90 1029.74 1029.60 1029.49 1029.42 1029.40 1029.43 1029.50 1029.58 1029.66 1029.75 1029.81 1029.87 1029.93 1030.01 1030.12 1030.27 1030.47 1030.71 1030.98 1031.27
1035.43 1035.31 1035.10 1034.82 1034.48 1034.08 1033.63 1033.14 1032.62 1032.09 1031.58 1031.10 1030.70 1030.37 1030.12 1029.95 1029.84 1029.75 1029.67 1029.58 1029.46 1029.31 1029.14 1028.97 1028.82 1028.70 1028.64 1028.63 1028.67 1028.74 1028.83 1028.92 1029.01 1029.08 1029.14 1029.21 1029.29 1029.41 1029.57 1029.77 1030.02 1030.31 1030.61
1035.89 1035.75 1035.52 1035.22 1034.84 1034.41 1033.92 1033.39 1032.83 1032.25 1031.69 1031.16 1030.68 1030.28 1029.96 1029.70 1029.50 1029.33 1029.16 1029.00 1028.81 1028.61 1028.41 1028.21 1028.05 1027.92 1027.86 1027.84 1027.88 1027.95 1028.04 1028.13 1028.22 1028.30 1028.37 1028.45 1028.54 1028.67 1028.84 1029.05 1029.31 1029.60 1029.90
1036.21 1036.06 1035.82 1035.51 1035.13 1034.70 1034.21 1033.67 1033.09 1032.50 1031.90 1031.33 1030.80 1030.34 1029.93 1029.58 1029.29 1029.02 1028.78 1028.53 1028.28 1028.02 1027.78 1027.55 1027.35 1027.21 1027.12 1027.09 1027.10 1027.16 1027.23 1027.31 1027.39 1027.47 1027.54 1027.63 1027.74 1027.88 1028.06 1028.28 1028.54 1028.83 1029.11
1036.39 1036.23 1035.99 1035.69 1035.33 1034.92 1034.45 1033.94 1033.38 1032.79 1032.18 1031.59 1031.02 1030.50 1030.02 1029.59 1029.21 1028.85 1028.52 1028.20 1027.88 1027.57 1027.27 1027.01 1026.78 1026.60 1026.47 1026.40 1026.37 1026.38 1026.41 1026.46 1026.51 1026.57 1026.64 1026.73 1026.85 1027.00 1027.20 1027.43 1027.70 1027.97 1028.25
1036.45 1036.27 1036.04 1035.76 1035.43 1035.06 1034.64 1034.16 1033.63 1033.07 1032.47 1031.87 1031.28 1030.71 1030.17 1029.67 1029.21 1028.78 1028.37 1027.97 1027.60 1027.23 1026.89 1026.58 1026.30 1026.07 1025.89 1025.75 1025.66 1025.61 1025.58 1025.57 1025.59 1025.62 1025.67 1025.75 1025.87 1026.03 1026.24 1026.48 1026.75 1027.03 1027.30
1036.39 1036.20 1035.98 1035.72 1035.44 1035.11 1034.73 1034.30 1033.82 1033.28 1032.71 1032.10 1031.50 1030.89 1030.31 1029.75 1029.23 1028.73 1028.26 1027.81 1027.38 1026.97 1026.58 1026.22 1025.89 1025.59 1025.34 1025.14 1024.97 1024.83 1024.73 1024.66 1024.62 1024.61 1024.63 1024.70 1024.82 1024.98 1025.20 1025.45 1025.73 1026.01 1026.30
1036.26 1036.06 1035.84 1035.61 1035.35 1035.07 1034.74 1034.35 1033.90 1033.40 1032.84 1032.24 1031.63 1031.00 1030.38 1029.78 1029.21 1028.66 1028.14 1027.64 1027.16 1026.71 1026.27 1025.86 1025.47 1025.11 1024.79 1024.50 1024.25 1024.04 1023.86 1023.72 1023.63 1023.57 1023.57 1023.62 1023.73 1023.90 1024.11 1024.37 1024.66 1024.96 1025.26
1036.06 1035.86 1035.65 1035.44 1035.21 1034.96 1034.66 1034.30 1033.88 1033.40 1032.86 1032.26 1031.64 1030.99 1030.35 1029.71 1029.10 1028.51 1027.95 1027.41 1026.89 1026.39 1025.90 1025.44 1025.00 1024.58 1024.19 1023.83 1023.51 1023.23 1022.98 1022.79 1022.65 1022.56 1022.53 1022.57 1022.67 1022.83 1023.05 1023.31 1023.60 1023.91 1024.23
1035.85 1035.66 1035.46 1035.26 1035.05 1034.81 1034.52 1034.18 1033.77 1033.30 1032.76 1032.16 1031.52 1030.86 1030.19 1029.53 1028.88 1028.26 1027.66 1027.08 1026.52 1025.97 1025.45 1024.94 1024.44 1023.97 1023.52 1023.11 1022.73 1022.40 1022.12 1021.89 1021.72 1021.61 1021.57 1021.59 1021.69 1021.84 1022.05 1022.30 1022.60 1022.92 1023.25
1035.66 1035.47 1035.28 1035.09 1034.88 1034.64 1034.35 1034.01 1033.59 1033.11 1032.57 1031.96 1031.31 1030.63 1029.94 1029.25 1028.57 1027.91 1027.27 1026.65 1026.05 1025.47 1024.89 1024.34 1023.80 1023.28 1022.80 1022.34 1021.94 1021.58 1021.28 1021.04 1020.86 1020.76 1020.71 1020.74 1020.82 1020.96 1021.16 1021.40 1021.68 1021.99 1022.33
1035.51 1035.34 1035.15 1034.95 1034.73 1034.47 1034.16 1033.80 1033.37 1032.87 1032.31 1031.69 1031.02 1030.33 1029.62 1028.91 1028.20 1027.51 1026.83 1026.17 1025.53 1024.90 1024.28 1023.68 1023.11 1022.56 1022.04 1021.57 1021.15 1020.79 1020.50 1020.27 1020.11 1020.02 1019.98 1020.01 1020.09 1020.21 1020.39 1020.60 1020.85 1021.14 1021.47
1035.42 1035.26 1035.06 1034.85 1034.59 1034.30 1033.96 1033.57 1033.11 1032.59 1032.01 1031.38 1030.70 1030.00 1029.27 1028.54 1027.82 1027.10 1026.39 1025.69 1025.00 1024.33 1023.68 1023.04 1022.43 1021.85 1021.32 1020.84 1020.42 1020.07 1019.80 1019.59 1019.46 1019.38 1019.36 1019.39 1019.46 1019.57 1019.71 1019.89 1020.10 1020.36 1020.66
Thickness
5543 5541 5539 5538 5537 5536 5536 5536 5536 5536 5537 5537 5538 5538 5539 5540 5542 5543 5545 5547 5549 5551 5552 5553 5554 5555 5556 5556 5556 5557 5555 5555 5556 5556 5555 5556 5558 5560 5562 5563 5564 5565 5567
5532 5531 5528 5527 5526 5526 5525 5525 5525 5526 5526 5526 5527 5527 5527 5528 5529 5531 5532 5534 5536 5539 5541 5542 5542 5543 5544 5544 5545 5545 5543 5542 5543 5544 5544 5543 5544 5546 5548 5550 5551 5552 5554
5524 5522 5519 5516 5515 5515 5515 5515 5514 5514 5514 5515 5514 5514 5514 5515 5516 5518 5519 5521 5523 5525 5528 5529 5530 5531 5532 5533 5533 5533 5533 5530 5529 5532 5533 5532 5532 5530 5533 5535 5537 5538 5540
5515 5512 5509 5506 5505 5504 5504 5504 5504 5503 5503 5503 5502 5502 5503 5503 5504 5506 5507 5508 5510 5512 5514 5516 5517 5519 5520 5521 5521 5521 5521 5520 5518 5517 5518 5520 5520 5518 5519 5521 5523 5525 5526
5505 5502 5499 5497 5495 5493 5492 5492 5492 5491 5491 5491 5491 5491 5491 5491 5492 5493 5494 5496 5497 5499 5501 5502 5504 5505 5507 5507 5508 5507 5508 5508 5507 5506 5505 5505 5505 5505 5507 5508 5509 5510 5512
5493 5491 5488 5485 5483 5481 5479 5479 5479 5479 5478 5477 5478 5479 5479 5478 5478 5479 5480 5482 5484 5486 5488 5489 5490 5492 5493 5494 5495 5495 5495 5495 5495 5494 5495 5495 5494 5493 5493 5494 5495 5496 5499
5480 5477 5474 5472 5469 5468 5467 5467 5467 5466 5466 5466 5466 5466 5466 5466 5466 5467 5468 5468 5470 5472 5474 5476 5477 5478 5479 5480 5481 5482 5482 5481 5481 5481 5482 5482 5482 5482 5481 5482 5481 5482 5484
5466 5464 5461 5459 5457 5455 5455 5454 5454 5454 5454 5453 5453 5453 5454 5454 5454 5455 5455 5456 5457 5459 5460 5462 5463 5464 5465 5466 5467 5468 5468 5468 5468 5468 5468 5469 5468 5469 5469 5469 5468 5467 5469
5452 5450 5448 5446 5444 5443 5442 5442 5442 5442 5441 5441 5440 5440 5440 5441 5442 5442 5442 5443 5444 5446 5447 5447 5449 5450 5451 5452 5454 5454 5454 5454 5454 5455 5455 5456 5455 5455 5455 5455 5456 5457 5457
5438 5437 5435 5433 5431 5430 5429 5429 5429 5429 5429 5428 5428 5428 5428 5429 5429 5429 5430 5430 5431 5433 5433 5434 5434 5436 5437 5438 5439 5440 5440 5441 5441 5441 5441 5442 5442 5443 5443 5442 5443 5444 5445
5424 5422 5421 5420 5418 5417 5416 5416 5415 5415 5415 5415 5415 5415 5415 5416 5416 5416 5417 5417 5418 5418 5420 5420 5421 5421 5423 5425 5426 5427 5427 5427 5427 5428 5428 5428 5429 5430 5430 5429 5429 5430 5431
5412 5410 5407 5405 5405 5404 5403 5403 5403 5402 5401 5401 5402 5402 5402 5402 5403 5403 5403 5403 5404 5405 5406 5406 5406 5407 5409 5411 5412 5414 5414 5414 5414 5415 5416 5415 5416 5417 5417 5417 5417 5417 5418
5400 5397 5395 5393 5392 5391 5390 5390 5389 5389 5389 5388 5388 5389 5389 5388 5389 5389 5389 5389 5390 5391 5392 5392 5393 5394 5396 5397 5399 5400 5401 5401 5401 5402 5403 5403 5404 5404 5404 5405 5404 5405 5405
5388 5385 5383 5381 5380 5379 5378 5377 5376 5376 5376 5375 5375 5375 5375 5375 5375 5375 5376 5376 5376 5377 5378 5378 5379 5381 5382 5384 5386 5387 5387 5388 5389 5390 5391 5391 5392 5393 5392 5392 5392 5392 5392
5377 5375 5373 5371 5368 5367 5366 5365 5364 5363 5363 5363 5362 5362 5362 5363 5362 5362 5362 5362 5363 5363 5364 5365 5366 5367 5368 5370 5372 5374 5375 5375 5376 5377 5377 5378 5378 5380 5380 5380 5379 5378 5378
5368 5365 5362 5360 5359 5357 5355 5353 5352 5351 5350 5350 5350 5350 5349 5349 5349 5349 5348 5349 5349 5349 5350 5352 5352 5353 5355 5358 5360 5362 5362 5363 5363 5364 5364 5364 5365 5365 5366 5366 5367 5367 5366
5358 5355 5352 5350 5348 5345 5344 5342 5340 5339 5338 5338 5338 5337 5337 5337 5337 5336 5336 5336 5336 5336 5337 5337 5338 5340 5342 5344 5347 5348 5349 5350 5350 5350 5350 5351 5350 5351 5351 5351 5352 5352 5352
5345 5343 5340 5338 5336 5334 5332 5330 5328 5326 5326 5326 5325 5325 5325 5325 5324 5323 5323 5322 5322 5322 5323 5323 5324 5326 5328 5330 5333 5334 5335 5336 5336 5336 5336 5336 5337 5336 5336 5337 5337 5337 5338
5333 5330 5328 5325 5323 5321 5319 5317 5316 5314 5313 5313 5313 5313 5313 5312 5311 5310 5310 5310 5309 5309 5309 5309 5310 5311 5313 5315 5318 5319 5320 5322 5322 5322 5323 5323 5323 5324 5324 5323 5322 5323 5323
5319 5317 5315 5312 5310 5308 5306 5304 5303 5302 5302 5302 5302 5301 5301 5300 5299 5298 5297 5297 5296 5296 5296 5296 5296 5297 5299 5301 5303 5304 5305 5307 5308 5308 5308 5309 5309 5310 5310 5309 5308 5308 5308
5307 5305 5302 5299 5297 5295 5293 5291 5290 5289 5290 5289 5289 5288 5288 5287 5286 5285 5284 5283 5282 5282 5282 5282 5282 5283 5284 5286 5289 5290 5290 5292 5292 5293 5294 5294 5295 5296 5296 5295 5295 5295 5294
5293 5292 5289 5286 5284 5282 5280 5279 5278 5277 5277 5276 5276 5275 5274 5274 5274 5272 5270 5269 5268 5267 5267 5267 5267 5268 5269 5271 5273 5275 5277 5278 5277 5278 5279 5280 5281 5281 5281 5281 5282 5281 5280
5280 5277 5275 5273 5270 5268 5268 5266 5265 5265 5264 5263 5262 5261 5260 5260 5259 5258 5256 5255 5253 5253 5253 5253 5253 5254 5255 5256 5258 5260 5262 5263 5263 5264 5265 5266 5266 5265 5265 5265 5266 5265 5264
5266 5263 5261 5259 5256 5255 5254 5253 5252 5252 5250 5249 5248 5248 5246 5245 5243 5243 5242 5241 5239 5238 5238 5239 5239 5239 5240 5241 5242 5243 5245 5247 5248 5247 5249 5250 5250 5250 5250 5249 5248 5249 5249
5253 5250 5247 5246 5244 5242 5240 5240 5238 5238 5237 5235 5235 5233 5233 5231 5229 5228 5227 5227 5226 5226 5226 5226 5225 5226 5227 5228 5230 5230 5232 5232 5232 5232 5232 5233 5233 5233 5233 5233 5233 5232 5233
5240 5237 5234 5233 5231 5229 5227 5226 5225 5224 5223 5222 5221 5220 5218 5216 5215 5214 5213 5212 5212 5214 5215 5215 5215 5215 5216 5216 5217 5218 5219 5219 5218 5217 5216 5216 5216 5216 5216 5217 5217 5217 5218